Weather History for KHXD - October, 2011

Change the Weather History Date:

Wednesday, October 5, 2011

  Actual Average (KSAV) Record (KSAV)
Temperature  
Mean Temperature 66 °F 71 °F  
Max Temperature 75 °F 81 °F 96 °F (1986)
Min Temperature 57 °F 62 °F 43 °F (1987)
Degree Days  
Heating Degree Days 0 1  
Month to date heating degree days 3  
Since 1 July heating degree days 5  
Cooling Degree Days 1 7  
Month to date cooling degree days 38  
Year to date cooling degree days 2304  
Growing Degree Days 16 (Base 50)    
Moisture  
Dew Point 57 °F    
Average Humidity 85    
Maximum Humidity 100    
Minimum Humidity 50    
Precipitation  
Precipitation 0.00 in 0.15 in 3.14 in (2005)
Month to date precipitation 0.79  
Year to date precipitation 39.74  
Sea Level Pressure  
Sea Level Pressure 30.20 in    
Wind  
Wind Speed 1 mph (NE)    
Max Wind Speed 10 mph    
Max Gust Speed -    
Visibility 10 miles    
Events      
T = Trace of Precipitation, MM = Missing Value Source: NWS Daily Summary

Daily Weather History Graph

Daily Weather History Graph

Search for Another Location

Airport or City:

Trip Planner

Search our weather history database for the weather conditions in past years. The results will help you decide how hot, cold, wet, or windy it might be!

Date:

Astronomy

Oct. 05, 2011 Rise Set
Actual Time 7:19 AM EDT 7:02 PM EDT
Civil Twilight 6:54 AM EDT 7:27 PM EDT
Nautical Twilight 6:26 AM EDT 7:55 PM EDT
Astronomical Twilight 5:57 AM EDT 8:24 PM EDT
Moon 3:23 PM EDT (10/5) 1:24 AM EDT (10/5)
Length of Visible Light 12h 32m
Length of Day
11h 43m
Waxing Gibbous, 66% of the Moon is Illuminated
Oct 5
Waxing Gibbous
Oct 11
Full
Oct 19
Last Quarter
Oct 26
New
Nov 2
First Quarter

Hourly Weather History & Observations

Time (EDT) Temp. Dew Point Humidity Pressure Visibility Wind Dir Wind Speed Gust Speed Precip Events Conditions
12:15 AM 57.2 °F 55.4 °F 94% 30.21 in 10.0 mi Calm Calm - 0.00 in   Clear
12:35 AM 57.2 °F 55.4 °F 94% 30.21 in 10.0 mi Calm Calm - 0.00 in   Clear
12:55 AM 57.2 °F 55.4 °F 94% 30.21 in 10.0 mi Calm Calm - 0.00 in   Clear
1:15 AM 57.2 °F 55.4 °F 94% 30.21 in 10.0 mi Calm Calm - 0.00 in   Clear
1:35 AM 57.2 °F 55.4 °F 94% 30.21 in 10.0 mi Calm Calm - 0.00 in   Clear
1:55 AM 57.2 °F 55.4 °F 94% 30.21 in 10.0 mi Calm Calm - 0.00 in   Clear
2:15 AM 57.2 °F 55.4 °F 94% 30.21 in 10.0 mi Calm Calm - 0.00 in   Clear
2:35 AM 57.2 °F 55.4 °F 94% 30.21 in 10.0 mi Calm Calm - 0.00 in   Clear
2:55 AM 57.2 °F 55.4 °F 94% 30.20 in 10.0 mi Calm Calm - 0.00 in   Clear
3:35 AM 57.2 °F 55.4 °F 94% 30.19 in 10.0 mi Calm Calm - 0.00 in   Clear
3:55 AM 57.2 °F 55.4 °F 94% 30.19 in 10.0 mi Calm Calm - 0.00 in   Clear
4:15 AM 57.2 °F 55.4 °F 94% 30.19 in 10.0 mi Calm Calm - 0.00 in   Clear
4:35 AM 57.2 °F 55.4 °F 94% 30.19 in 10.0 mi Calm Calm - 0.00 in   Clear
4:55 AM 57.2 °F 55.4 °F 94% 30.19 in 10.0 mi Calm Calm - 0.00 in   Clear
5:15 AM 57.2 °F 55.4 °F 94% 30.19 in 10.0 mi Calm Calm - 0.00 in   Clear
5:55 AM 57.2 °F 57.2 °F 100% 30.20 in 10.0 mi North 4.6 mph - 0.00 in   Clear
6:15 AM 57.2 °F 57.2 °F 100% 30.21 in 10.0 mi NNE 4.6 mph - 0.00 in   Clear
6:35 AM 57.2 °F 57.2 °F 100% 30.21 in 8.0 mi Calm Calm - 0.00 in   Clear
6:50 AM 57.2 °F 57.2 °F 100% 30.22 in 10.0 mi Calm Calm - N/A   Clear
7:50 AM 59.0 °F 59.0 °F 100% 30.23 in 10.0 mi Calm Calm - N/A   Clear
9:50 AM 71.6 °F 59.0 °F 64% 30.25 in 10.0 mi North 8.1 mph - N/A   Clear
10:50 AM 73.4 °F 57.2 °F 57% 30.26 in 10.0 mi NE 6.9 mph - N/A   Clear
11:55 AM 75.2 °F 55.4 °F 50% 30.25 in 10.0 mi NE 8.1 mph - N/A   Clear
2:50 PM 75.2 °F 55.4 °F 50% 30.19 in 10.0 mi East 10.4 mph - N/A   Clear
3:50 PM 75.2 °F 57.2 °F 53% 30.18 in 10.0 mi East 5.8 mph - N/A   Clear
4:50 PM 73.4 °F 55.4 °F 53% 30.18 in 10.0 mi East 4.6 mph - N/A   Clear
5:50 PM 73.4 °F 55.4 °F 53% 30.17 in 10.0 mi East 4.6 mph - N/A   Clear
6:50 PM 71.6 °F 55.4 °F 57% 30.17 in 10.0 mi Calm Calm - N/A   Clear
7:50 PM 66.2 °F 57.2 °F 73% 30.18 in 10.0 mi Calm Calm - N/A   Clear
9:15 PM 62.6 °F 59.0 °F 88% 30.19 in 10.0 mi Calm Calm - 0.00 in   Clear
9:35 PM 62.6 °F 59.0 °F 88% 30.20 in 10.0 mi Calm Calm - 0.00 in   Clear
10:15 PM 62.6 °F 59.0 °F 88% 30.20 in 10.0 mi Calm Calm - 0.00 in   Clear
10:35 PM 62.6 °F 59.0 °F 88% 30.20 in 10.0 mi Calm Calm - 0.00 in   Clear
10:55 PM 62.6 °F 59.0 °F 88% 30.20 in 10.0 mi Calm Calm - 0.00 in   Clear
11:15 PM 62.6 °F 59.0 °F 88% 30.20 in 10.0 mi Calm Calm - 0.00 in   Clear
11:35 PM 60.8 °F 59.0 °F 94% 30.20 in 10.0 mi Calm Calm - 0.00 in   Clear
11:55 PM 60.8 °F 59.0 °F 94% 30.20 in 10.0 mi Calm Calm - 0.00 in   Clear